Nashville, TN

5:38 AM CDT on May 29, 2017 (GMT -0500)
Nashville International

Weather History for KBNA - October, 2014

Change the Weather History Date:

Sunday, October 12, 2014

  Actual Average Record
Temperature  
Mean Temperature 68 °F 62 °F  
Max Temperature 77 °F 73 °F 88 °F (1969)
Min Temperature 58 °F 50 °F 33 °F (1906)
Degree Days  
Heating Degree Days 0    
Month to date heating degree days 27  
Since 1 July heating degree days 30  
Cooling Degree Days 3    
Month to date cooling degree days 45  
Year to date cooling degree days 1786  
Growing Degree Days 17 (Base 50)    
Moisture  
Dew Point 62 °F    
Average Humidity 87    
Maximum Humidity 100    
Minimum Humidity 73    
Precipitation  
Precipitation 0.02 in 0.09 in 1.43 in (2004)
Month to date precipitation 4.93 1.17  
Year to date precipitation 40.54 36.83  
Snow  
Snow 0.00 in - 0.00 in (2002)
Month to date snowfall 0.0  
Since 1 July snowfall 0.0  
Since 1 September snowfall 0.0  
Snow Depth 0.00 in    
Sea Level Pressure  
Sea Level Pressure 30.01 in    
Wind  
Wind Speed 6 mph (SSE)    
Max Wind Speed 16 mph    
Max Gust Speed 20 mph    
Visibility 7 miles    
Events Fog , Rain    
T = Trace of Precipitation, MM = Missing Value Source: NWS Daily Summary

Daily Weather History Graph

Daily Weather History Graph

Search for Another Location

Airport or City:

Trip Planner

Search our weather history database for the weather conditions in past years. The results will help you decide how hot, cold, wet, or windy it might be!

Date:

Astronomy

Oct. 12, 2014 Rise Set
Actual Time 6:51 AM CDT 6:14 PM CDT
Civil Twilight 6:25 AM CDT 6:40 PM CDT
Nautical Twilight 5:55 AM CDT 7:10 PM CDT
Astronomical Twilight 5:25 AM CDT 7:39 PM CDT
Moon 9:38 PM CDT (10/12) 11:06 AM CDT (10/12)
Length of Visible Light 12h 15m
Length of Day
11h 23m
Waning Gibbous, 79% of the Moon is Illuminated
Oct 12
Waning Gibbous
Oct 15
Last Quarter
Oct 23
New
Oct 30
First Quarter
Nov 6
Full

Hourly Weather History & Observations

Time (CDT) Temp. Dew Point Humidity Pressure Visibility Wind Dir Wind Speed Gust Speed Precip Events Conditions
12:53 AM 57.9 °F 57.0 °F 97% 30.04 in 8.0 mi ENE 3.5 mph - 0.02 in Rain Light Rain
1:53 AM 59.0 °F 57.9 °F 96% 30.03 in 10.0 mi NE 4.6 mph - 0.02 in   Overcast
2:53 AM 59.0 °F 57.0 °F 93% 30.02 in 10.0 mi NE 4.6 mph - N/A   Overcast
3:53 AM 59.0 °F 57.2 °F 94% 30.02 in 10.0 mi NE 4.6 mph - N/A   Overcast
4:53 AM 59.0 °F 57.9 °F 96% 30.01 in 8.0 mi NE 3.5 mph - N/A   Overcast
5:53 AM 59.0 °F 57.9 °F 96% 30.02 in 5.0 mi Calm Calm - N/A   Overcast
6:53 AM 59.0 °F 57.9 °F 96% 30.03 in 5.0 mi Calm Calm - N/A   Overcast
7:10 AM 60.8 °F 59.0 °F 94% 30.04 in 0.5 mi Calm Calm - N/A   Overcast
7:33 AM 59.0 °F 59.0 °F 100% 30.04 in 0.2 mi ESE 3.5 mph - N/A   Overcast
7:53 AM 60.1 °F 59.0 °F 96% 30.04 in 0.2 mi Calm Calm - N/A   Overcast
8:53 AM 61.0 °F 60.1 °F 97% 30.05 in 0.2 mi Calm Calm - N/A Fog Fog
9:03 AM 60.8 °F 60.8 °F 100% 30.05 in 0.2 mi SSE 3.5 mph - N/A Fog Fog
9:26 AM 60.8 °F 60.8 °F 100% 30.05 in 0.2 mi Calm Calm - N/A Fog Fog
9:53 AM 62.1 °F 61.0 °F 96% 30.04 in 0.8 mi SSE 4.6 mph - N/A   Overcast
10:11 AM 62.6 °F 62.6 °F 100% 30.04 in 2.5 mi SSE 5.8 mph - N/A   Overcast
10:36 AM 62.6 °F 62.6 °F 100% 30.05 in 7.0 mi South 4.6 mph - N/A   Overcast
10:53 AM 64.0 °F 63.0 °F 96% 30.04 in 7.0 mi South 6.9 mph - N/A   Overcast
11:18 AM 66.2 °F 62.6 °F 88% 30.04 in 10.0 mi SSE 4.6 mph - N/A   Overcast
11:53 AM 68.0 °F 64.0 °F 87% 30.02 in 10.0 mi South 5.8 mph - N/A   Overcast
12:53 PM 73.0 °F 66.0 °F 79% 29.99 in 10.0 mi Variable 3.5 mph - N/A   Mostly Cloudy
1:00 PM 73.4 °F 66.2 °F 78% 30.00 in 10.0 mi South 3.5 mph - N/A   Mostly Cloudy
1:53 PM 73.9 °F 66.0 °F 76% 29.97 in 10.0 mi SSW 8.1 mph - N/A   Mostly Cloudy
2:00 PM 73.4 °F 66.2 °F 78% 29.98 in 10.0 mi South 8.1 mph - N/A   Mostly Cloudy
2:53 PM 73.9 °F 66.0 °F 76% 29.95 in 10.0 mi South 10.4 mph - N/A   Overcast
3:53 PM 73.4 °F 64.4 °F 73% 29.96 in 10.0 mi South 13.8 mph - N/A   Overcast
4:53 PM 73.0 °F 66.0 °F 79% 29.95 in 10.0 mi South 9.2 mph - N/A   Overcast
5:53 PM 71.1 °F 64.9 °F 81% 29.96 in 10.0 mi South 12.7 mph - N/A   Mostly Cloudy
6:53 PM 69.1 °F 64.0 °F 84% 29.96 in 10.0 mi SSE 8.1 mph - N/A   Mostly Cloudy
7:53 PM 66.9 °F 64.0 °F 90% 29.97 in 10.0 mi SSE 4.6 mph - N/A   Overcast
8:53 PM 68.0 °F 64.0 °F 87% 29.97 in 10.0 mi South 5.8 mph - N/A   Mostly Cloudy
9:53 PM 69.1 °F 64.0 °F 84% 29.99 in 10.0 mi South 8.1 mph - N/A   Overcast
10:53 PM 68.0 °F 64.0 °F 87% 29.99 in 10.0 mi SSE 8.1 mph - N/A   Overcast
11:53 PM 68.0 °F 64.0 °F 87% 29.98 in 10.0 mi SSE 8.1 mph - N/A   Overcast